Location: Losili
(4.4086°N, 32.7049°E)
Time: 16:04:04
(UTC+00:00)

ASTEX 1 - Pass Details

Date: 18 September 2019
Orbit: 720 x 744 km, 92.7° (Epoch: 18 October)

Event Time Altitude Azimuth Distance (km) Brightness Sun altitude
Rises 17:29:13 0° 357° (N) 3,116 6.8 -26.2°
Reaches altitude 10° 17:31:32 10° 352° (N) 2,199 6.0 -26.8°
Maximum altitude 17:36:14 50° 277° (W) 917 4.2 -28.0°
Drops below altitude 10° 17:40:57 10° 202° (SSW) 2,215 6.1 -29.1°
Sets 17:43:18 0° 197° (SSW) 3,141 6.8 -29.7°
